This demonstration page uses our WeatherBlox Daily Observations layout. Learn more.

Left ArrowRight Arrow

39.51506, -84.39828

Hourly Observations for May 10, 2016

Temp ( °F °C ) Dew Point ( °F °C ) Humidity (%) Winds ( mph kmh ) Pressure ( in mb ) Visibility ( mi km ) Precip ( " mm )
12:35 am 00:35 Mostly Cloudy 57 13.8 51 10.3 80 80 NNE 5 7 30.06 1018 10 16 N/A
12:55 am 00:55 Mostly Cloudy 57 13.8 51 10.3 80 80 NNE 3 6 30.06 1018 10 16 N/A
1:15 am 01:15 Mostly Cloudy 57 13.8 51 10.3 80 80 undefined N/A 30.06 1018 10 16 N/A
1:35 am 01:35 Cloudy 57 13.8 51 10.3 80 80 NNE 3 6 30.06 1018 10 16 N/A
1:55 am 01:55 Cloudy 57 13.8 51 10.3 80 80 N N/A 30.06 1018 10 16 N/A
2:15 am 02:15 Mostly Cloudy 57 13.8 51 10.5 81 81 NNE 5 7 30.06 1018 10 16 N/A
2:35 am 02:35 Clear 57 13.8 51 10.4 80 80 N N/A 30.06 1018 10 16 N/A
2:55 am 02:55 Partly Cloudy 57 13.8 51 10.6 81 81 N 3 6 30.06 1018 7 11 N/A
3:15 am 03:15 Mostly Cloudy 57 13.8 51 10.6 81 81 undefined N/A 30.03 1017 7 11 N/A
3:35 am 03:35 Cloudy with Drizzle 57 13.8 51 10.7 82 82 undefined N/A 30.06 1018 7 11 N/A
3:55 am 03:55 Cloudy with Light Rain 57 13.8 51 10.7 82 82 undefined N/A 30.06 1018 7 11 N/A
4:15 am 04:15 Cloudy 57 13.8 51 10.7 82 82 N N/A 30.06 1018 7 11 N/A
4:35 am 04:35 Cloudy 57 13.8 51 10.7 82 82 NNE 3 6 30.06 1018 7 11 N/A
4:55 am 04:55 Mostly Cloudy 57 13.8 51 10.7 82 82 undefined N/A 30.06 1018 7 11 N/A
5:15 am 05:15 Partly Cloudy 57 13.8 51 10.6 81 81 N N/A 30.06 1018 7 11 N/A
5:35 am 05:35 Partly Cloudy 57 13.8 51 10.6 81 81 undefined N/A 30.06 1018 7 11 N/A
5:55 am 05:55 Partly Cloudy 57 13.8 51 10.6 81 81 undefined N/A 30.03 1017 7 11 N/A
6:15 am 06:15 Hazy 55 12.7 49 9.6 82 82 undefined N/A 30.03 1017 5 8 N/A
6:35 am 06:35 Hazy 55 12.5 49 9.5 82 82 undefined N/A 30.03 1017 5 8 N/A
6:55 am 06:55 Hazy 56 13.4 51 10.6 83 83 undefined N/A 30.03 1017 4 6 N/A
7:15 am 07:15 Mostly Cloudy with Haze 57 13.8 52 11 83 83 undefined N/A 30.03 1017 4 6 N/A
7:35 am 07:35 Cloudy with Haze 57 13.8 52 11 83 83 undefined N/A 30.03 1017 4 6 N/A
7:55 am 07:55 Cloudy with Haze 58 14.7 53 11.7 82 82 undefined N/A 30.03 1017 5 8 N/A
8:15 am 08:15 Mostly Cloudy 60 15.3 54 12.1 81 81 undefined N/A 30.03 1017 10 16 N/A
8:35 am 08:35 Mostly Cloudy 61 16.3 54 12 76 76 N N/A 30.00 1016 10 16 N/A
8:55 am 08:55 Partly Cloudy 62 16.9 53 11.9 73 73 undefined N/A 30.00 1016 10 16 N/A
9:15 am 09:15 Mostly Cloudy 64 17.9 55 12.8 72 72 undefined N/A 30.00 1016 10 16 N/A
9:35 am 09:35 Cloudy 64 18 54 12 68 68 undefined N/A 30.00 1016 10 16 N/A
9:55 am 09:55 Cloudy 65 18.3 54 12.1 67 67 undefined N/A 30.00 1016 10 16 N/A
10:15 am 10:15 Cloudy 69 20.8 57 13.9 65 65 undefined N/A 30.00 1016 10 16 N/A
10:35 am 10:35 Cloudy 69 20.8 56 13.2 62 62 undefined N/A 30.00 1016 10 16 N/A
10:55 am 10:55 Mostly Cloudy 69 20.8 55 12.9 61 61 undefined N/A 30.00 1016 10 16 N/A
11:15 am 11:15 Cloudy 69 20.8 56 13.1 62 62 undefined N/A 30.00 1016 10 16 N/A
11:35 am 11:35 Cloudy with Rain 69 20.8 59 14.9 69 69 undefined N/A 30.00 1016 7 11 N/A
11:55 am 11:55 Cloudy with Light Rain 69 20.8 61 16 74 74 undefined N/A 30.00 1016 10 16 N/A
12:15 pm 12:15 Cloudy with Light Rain 69 20.8 61 16 74 74 undefined N/A 30.00 1016 10 16 N/A
12:35 pm 12:35 Cloudy with Light Rain 69 20.8 61 16 74 74 undefined N/A 30.00 1016 10 16 N/A
12:55 pm 12:55 Cloudy with Rain 69 20.8 61 16 74 74 undefined N/A 30.00 1016 5 8 N/A
1:15 pm 13:15 Cloudy with Rain 69 20.8 62 16.5 77 77 undefined N/A 30.00 1016 7 11 N/A
1:35 pm 13:35 Cloudy with Rain 69 20.7 62 16.9 79 79 undefined N/A 29.97 1015 7 11 N/A
1:55 pm 13:55 Cloudy with Light Rain 67 19.4 61 16 81 81 undefined N/A 30.00 1016 2 2 N/A
2:15 pm 14:15 Cloudy 69 20.8 63 17.1 79 79 undefined N/A 29.97 1015 10 16 N/A
2:35 pm 14:35 Cloudy 69 20.8 62 16.6 77 77 undefined N/A 29.97 1015 10 16 N/A
2:55 pm 14:55 Mostly Cloudy 69 20.8 62 16.6 77 77 undefined N/A 29.97 1015 10 16 N/A
3:15 pm 15:15 Mostly Cloudy 72 22.2 62 16.8 72 72 undefined N/A 29.97 1015 10 16 N/A
3:35 pm 15:35 Cloudy 73 22.9 63 17.1 70 70 undefined N/A 29.97 1015 10 16 N/A
3:55 pm 15:55 Mostly Cloudy 74 23.6 62 16.4 64 64 undefined N/A 29.97 1015 10 16 N/A
4:15 pm 16:15 Mostly Cloudy 74 23.6 60 15.7 61 61 SSW 12 19 29.97 1015 10 16 N/A
4:35 pm 16:35 Cloudy with Heavy Rain 73 23 61 16.2 66 66 undefined N/A 30.00 1016 5 8 N/A
4:55 pm 16:55 Cloudy with Heavy Rain 69 20.8 60 15.7 73 73 N N/A 29.97 1015 4 6 N/A
5:15 pm 17:15 Cloudy with Light Rain 67 19.5 60 15.6 78 78 SE 8 13 29.91 1013 10 16 N/A
5:35 pm 17:35 Mostly Cloudy 69 20.8 63 17 79 79 undefined N/A 29.94 1014 10 16 N/A
5:55 pm 17:55 Partly Cloudy 69 20.5 62 16.6 78 78 undefined N/A 29.94 1014 10 16 N/A
6:15 pm 18:15 Partly Cloudy 67 19.5 59 15.1 76 76 undefined N/A 29.97 1015 10 16 N/A
6:35 pm 18:35 Sunny 67 19.5 58 14.7 74 74 undefined N/A 29.97 1015 10 16 N/A
6:55 pm 18:55 Partly Cloudy 67 19.5 58 14.6 73 73 undefined N/A 29.97 1015 10 16 N/A
7:15 pm 19:15 Mostly Cloudy 69 20.8 60 15.6 72 72 undefined N/A 29.97 1015 10 16 N/A
7:35 pm 19:35 Partly Cloudy 67 19.6 58 14.5 73 73 undefined N/A 29.97 1015 10 16 N/A
7:55 pm 19:55 Partly Cloudy 66 18.8 57 14.1 74 74 undefined N/A 29.97 1015 10 16 N/A
8:15 pm 20:15 Partly Cloudy 64 18 57 13.7 76 76 undefined N/A 29.97 1015 10 16 N/A
8:35 pm 20:35 Mostly Cloudy 64 18 57 13.7 76 76 undefined N/A 29.97 1015 10 16 N/A
8:55 pm 20:55 Partly Cloudy 64 18 57 13.8 77 77 undefined N/A 29.97 1015 10 16 N/A
9:15 pm 21:15 Partly Cloudy 64 18 57 14 78 78 undefined N/A 29.97 1015 10 16 N/A
9:35 pm 21:35 Partly Cloudy 63 17.2 56 13.5 79 79 undefined N/A 29.97 1015 10 16 N/A
9:55 pm 21:55 Clear 63 17.3 56 13.3 78 78 undefined N/A 29.97 1015 10 16 N/A
10:15 pm 22:15 Partly Cloudy 63 17.2 56 13.4 78 78 undefined N/A 30.00 1016 10 16 N/A
10:35 pm 22:35 Cloudy with Light Rain 63 17 56 13.2 78 78 undefined N/A 30.00 1016 10 16 N/A
10:55 pm 22:55 Partly Cloudy 62 16.6 55 12.9 79 79 undefined N/A 29.97 1015 10 16 N/A
11:15 pm 23:15 Clear 61 15.9 55 12.5 80 80 N N/A 30.00 1016 10 16 N/A
11:35 pm 23:35 Mostly Cloudy with Haze 60 15.3 54 12.3 82 82 N N/A 30.03 1017 2 2 N/A
11:55 pm 23:55 Hazy 60 15.3 55 12.5 84 84 N N/A 30.03 1017 5 8 N/A

Powered by AerisWeather